{"data":{"norad_id":60286,"intl_designator":"2024-132J","name":"STARLINK-31656","alt_names":[],"object_type":"PAYLOAD","status":"ACTIVE","operator":null,"country":"US","launch_date":"2024-07-28","launch_site_code":"AFETR","launch_vehicle":null,"mission":null,"orbit_class":"UNKNOWN","rcs_meters":null,"size_class":null,"mass_kg":null,"dimensions":null,"purposes":["comms"],"wikipedia_slug":null,"has_3d_model":false,"image_url":null,"decayed_at":null,"tle_current":{"epoch":"2026-09-21T07:21:00.454464Z","epoch_age_seconds":111819,"freshness":"FRESH","line1":"1 60286U 24132J   26264.30625526 -.00002332  00000+0 -57951-4 0  9995","line2":"2 60286  53.1582 222.1546 0001181  83.4435 276.6702 15.34382268121532","mean_motion":15.34382268,"eccentricity":0.0001181,"inclination_deg":53.1582,"raan_deg":222.1546,"arg_perigee_deg":83.4435,"mean_anomaly_deg":276.6702,"bstar":-5.7951e-5,"rev_number":12153,"period_min":93.848842627527,"perigee_km":461.94803449882,"apogee_km":463.56385341219,"semimajor_km":6840.8929439555,"source":"CELESTRAK","updated_at":"2026-09-22T09:00:49.192901Z"}}}